| time (UTC) | temp C | wind direction | speed KPH | gust KPH | rain 1hr cm | rain 24hr cm | rain mn cm | humidity % | barometer mb |
| 20260506214517 | 14 | 80 | 0.0 | 0.0 | 0.00 | 0.84 | 0.84 | 88 | 1008.4 |
| 20260506213013 | 14 | 80 | 0.0 | 0.0 | 0.00 | 0.84 | 0.84 | 88 | 1008.3 |
| 20260506211513 | 15 | 80 | 0.0 | 0.0 | 0.00 | 0.84 | 0.84 | 88 | 1008.3 |
| 20260506210011 | 15 | 80 | 0.0 | 0.0 | 0.00 | 0.84 | 0.84 | 88 | 1008.3 |
| 20260506204601 | 15 | 80 | 0.0 | 0.0 | 0.00 | 0.84 | 0.84 | 88 | 1008.2 |
| 20260506203056 | 14 | 80 | 0.0 | 0.0 | 0.00 | 0.84 | 0.84 | 88 | 1008.2 |
| 20260506201552 | 15 | 80 | 0.0 | 0.0 | 0.00 | 0.84 | 0.84 | 87 | 1008.1 |
| 20260506200049 | 15 | 80 | 0.0 | 0.0 | 0.00 | 0.84 | 0.84 | 87 | 1008.0 |
| 20260506194548 | 15 | 80 | 0.0 | 0.0 | 0.00 | 0.84 | 0.84 | 87 | 1007.8 |
| 20260506193038 | 15 | 82 | 0.0 | 0.0 | 0.00 | 0.84 | 0.84 | 88 | 1007.7 |
| 20260506191534 | 15 | 84 | 0.0 | 0.0 | 0.00 | 0.84 | 0.84 | 88 | 1007.7 |
| 20260506190030 | 15 | 83 | 0.0 | 0.0 | 0.00 | 0.86 | 0.84 | 87 | 1007.6 |
| 20260506184526 | 15 | 83 | 0.0 | 0.0 | 0.00 | 0.86 | 0.84 | 87 | 1007.3 |
| 20260506183021 | 15 | 82 | 0.0 | 0.0 | 0.00 | 0.86 | 0.84 | 87 | 1007.4 |
| 20260506181519 | 15 | 82 | 0.0 | 0.0 | 0.00 | 0.86 | 0.84 | 87 | 1007.3 |
| 20260506180017 | 15 | 69 | 0.0 | 0.0 | 0.00 | 0.91 | 0.84 | 87 | 1007.2 |
| 20260506174509 | 16 | 69 | 0.0 | 0.0 | 0.00 | 0.91 | 0.84 | 87 | 1007.1 |
| 20260506173004 | 15 | 73 | 0.0 | 0.0 | 0.00 | 0.91 | 0.84 | 86 | 1007.1 |
| 20260506171610 | 16 | 76 | 0.0 | 4.8 | 0.00 | 0.91 | 0.84 | 86 | 1007.0 |
| 20260506164610 | 16 | 74 | 0.0 | 0.0 | 0.00 | 0.97 | 0.84 | 87 | 1006.9 |
| 20260506163047 | 16 | 61 | 0.0 | 1.6 | 0.00 | 0.97 | 0.84 | 86 | 1007.0 |
| 20260506161542 | 16 | 80 | 0.0 | 1.6 | 0.00 | 0.97 | 0.84 | 87 | 1007.1 |
| 20260506160046 | 16 | 71 | 0.0 | 0.0 | 0.00 | 1.07 | 0.84 | 87 | 1007.0 |
| 20260506154542 | 17 | 75 | 0.0 | 0.0 | 0.00 | 1.07 | 0.84 | 86 | 1006.9 |
| 20260506153030 | 17 | 86 | 0.0 | 0.0 | 0.03 | 1.07 | 0.84 | 88 | 1007.0 |
| 20260506151525 | 16 | 67 | 0.0 | 1.6 | 0.18 | 1.07 | 0.84 | 91 | 1007.1 |
| 20260506150020 | 16 | 55 | 0.0 | 0.0 | 0.23 | 1.17 | 0.84 | 91 | 1007.2 |
| 20260506144516 | 15 | 60 | 0.0 | 0.0 | 0.33 | 1.17 | 0.84 | 92 | 1007.1 |
| 20260506143011 | 15 | 43 | 0.0 | 0.0 | 0.46 | 1.12 | 0.79 | 90 | 1006.9 |
| 20260506141507 | 15 | 252 | 0.0 | 0.0 | 0.33 | 0.99 | 0.66 | 90 | 1007.7 |
| 20260506140002 | 16 | 192 | 0.0 | 0.0 | 0.33 | 0.91 | 0.61 | 90 | 1007.6 |
| 20260506134558 | 16 | 169 | 0.0 | 0.0 | 0.25 | 0.84 | 0.51 | 89 | 1007.5 |
| 20260506133103 | 16 | 96 | 0.0 | 0.0 | 0.08 | 0.66 | 0.33 | 87 | 1007.6 |
| 20260506131554 | 16 | 83 | 0.0 | 0.0 | 0.05 | 0.64 | 0.33 | 84 | 1007.7 |
| 20260506130047 | 17 | 73 | 0.0 | 0.0 | 0.00 | 0.61 | 0.25 | 81 | 1007.8 |
| 20260506124545 | 17 | 98 | 0.0 | 0.0 | 0.00 | 0.61 | 0.25 | 81 | 1007.9 |
| 20260506123046 | 17 | 109 | 0.0 | 0.0 | 0.00 | 0.61 | 0.25 | 82 | 1008.0 |
| 20260506121551 | 16 | 181 | 0.0 | 0.0 | 0.00 | 0.61 | 0.25 | 84 | 1008.0 |
| 20260506120106 | 16 | 183 | 0.0 | 0.0 | 0.00 | 0.61 | 0.25 | 84 | 1008.1 |
| 20260506114544 | 16 | 186 | 0.0 | 0.0 | 0.03 | 0.61 | 0.25 | 84 | 1008.2 |
| 20260506113036 | 16 | 177 | 0.0 | 0.0 | 0.03 | 0.61 | 0.25 | 83 | 1008.3 |
| 20260506111533 | 16 | 122 | 0.0 | 0.0 | 0.03 | 0.61 | 0.25 | 87 | 1008.3 |
| 20260506110028 | 16 | 213 | 0.0 | 3.2 | 0.03 | 0.71 | 0.25 | 87 | 1008.5 |
| 20260506104524 | 16 | 289 | 0.0 | 0.0 | 0.00 | 0.69 | 0.23 | 85 | 1008.5 |
| 20260506103028 | 16 | 288 | 0.0 | 0.0 | 0.00 | 0.69 | 0.23 | 83 | 1008.6 |
| 20260506101522 | 16 | 288 | 0.0 | 0.0 | 0.00 | 0.69 | 0.23 | 84 | 1008.7 |
| 20260506100018 | 16 | 288 | 0.0 | 0.0 | 0.00 | 0.71 | 0.23 | 84 | 1008.6 |
| 20260506094527 | 16 | 288 | 0.0 | 0.0 | 0.00 | 0.71 | 0.23 | 87 | 1008.7 |
| 20260506093023 | 15 | 290 | 0.0 | 0.0 | 0.03 | 0.71 | 0.23 | 88 | 1008.8 |
| 20260506091512 | 15 | 300 | 0.0 | 0.0 | 0.03 | 0.71 | 0.23 | 89 | 1008.8 |
| 20260506090013 | 15 | 306 | 0.0 | 0.0 | 0.03 | 0.71 | 0.23 | 89 | 1008.6 |
| 20260506084511 | 15 | 299 | 0.0 | 0.0 | 0.03 | 0.71 | 0.23 | 89 | 1008.5 |
| 20260506083010 | 15 | 246 | 0.0 | 0.0 | 0.00 | 0.71 | 0.23 | 92 | 1008.4 |
| 20260506081506 | 15 | 246 | 0.0 | 0.0 | 0.00 | 0.71 | 0.23 | 93 | 1008.4 |
| 20260506073002 | 14 | 95 | 0.0 | 3.2 | 0.03 | 0.71 | 0.23 | 92 | 1008.1 |
| 20260506071602 | 14 | 84 | 0.0 | 0.0 | 0.03 | 0.71 | 0.23 | 92 | 1008.3 |
| 20260506070117 | 13 | 78 | 0.0 | 0.0 | 0.00 | 0.69 | 0.20 | 92 | 1008.4 |
| 20260506061553 | 13 | 70 | 0.0 | 0.0 | 0.15 | 0.69 | 0.20 | 92 | 1008.3 |
| 20260506044557 | 13 | 68 | 0.0 | 0.0 | 0.00 | 0.48 | 0.00 | 90 | 1008.5 |
| 20260506043049 | 13 | 84 | 0.0 | 3.2 | 0.00 | 0.48 | 0.00 | 90 | 1008.2 |
| 20260506041553 | 13 | 92 | 0.0 | 1.6 | 0.00 | 0.48 | 0.00 | 90 | 1008.2 |
| 20260506040046 | 13 | 71 | 0.0 | 0.0 | 0.00 | 0.48 | 0.00 | 91 | 1008.2 |
| 20260506034543 | 12 | 67 | 0.0 | 0.0 | 0.00 | 0.48 | 0.00 | 91 | 1008.6 |
| 20260506033041 | 12 | 82 | 0.0 | 3.2 | 0.00 | 0.48 | 0.00 | 91 | 1008.8 |
| 20260506031554 | 12 | 63 | 0.0 | 0.0 | 0.00 | 0.48 | 0.00 | 91 | 1008.9 |
| 20260506030053 | 12 | 65 | 0.0 | 0.0 | 0.00 | 0.48 | 0.00 | 91 | 1009.1 |
| 20260506024539 | 12 | 71 | 0.0 | 0.0 | 0.00 | 0.48 | 0.00 | 91 | 1008.9 |
| 20260506023038 | 12 | 72 | 0.0 | 0.0 | 0.00 | 0.48 | 0.00 | 91 | 1009.1 |
| 20260506021536 | 12 | 72 | 0.0 | 0.0 | 0.00 | 0.48 | 0.00 | 91 | 1009.1 |
| 20260506020034 | 12 | 73 | 0.0 | 0.0 | 0.00 | 0.48 | 0.00 | 91 | 1009.3 |
| 20260506014533 | 12 | 73 | 0.0 | 0.0 | 0.00 | 0.48 | 0.00 | 91 | 1009.6 |
| 20260506013037 | 12 | 73 | 0.0 | 0.0 | 0.00 | 0.48 | 0.00 | 91 | 1009.5 |
| 20260506011533 | 12 | 73 | 0.0 | 0.0 | 0.00 | 0.48 | 0.00 | 91 | 1009.5 |
| 20260506010034 | 12 | 71 | 0.0 | 0.0 | 0.00 | 0.48 | 0.00 | 91 | 1009.6 |
| 20260506004543 | 12 | 73 | 0.0 | 0.0 | 0.00 | 0.48 | 0.00 | 91 | 1009.4 |
| 20260506003029 | 12 | 74 | 0.0 | 0.0 | 0.00 | 0.48 | 0.00 | 91 | 1009.4 |
| 20260506001527 | 12 | 76 | 0.0 | 0.0 | 0.00 | 0.48 | 0.00 | 91 | 1009.4 |
| 20260506000026 | 12 | 74 | 0.0 | 0.0 | 0.00 | 0.48 | 0.00 | 91 | 1009.7 |
| 20260505234556 | 12 | 62 | 0.0 | 0.0 | 0.00 | 0.48 | 0.00 | 91 | 1009.8 |
| 20260505233022 | 13 | 67 | 0.0 | 0.0 | 0.00 | 0.48 | 0.00 | 91 | 1010.0 |
| 20260505231520 | 13 | 75 | 0.0 | 0.0 | 0.00 | 0.48 | 0.00 | 91 | 1010.1 |
| 20260505230018 | 13 | 74 | 0.0 | 0.0 | 0.00 | 0.48 | 0.00 | 92 | 1010.2 |
| 20260505224526 | 13 | 78 | 0.0 | 0.0 | 0.00 | 0.48 | 0.00 | 92 | 1010.4 |
| 20260505223016 | 13 | 80 | 0.0 | 0.0 | 0.00 | 0.48 | 0.00 | 92 | 1010.5 |
| 20260505221515 | 13 | 65 | 0.0 | 0.0 | 0.00 | 0.48 | 0.00 | 92 | 1010.5 |
| 20260505220014 | 13 | 65 | 0.0 | 0.0 | 0.00 | 0.48 | 0.48 | 92 | 1010.6 |